Regional Weather Roundup
Issued by NWS

Home | Current Version | Previous Version | Graphics & Text | Print | Product List | Glossary On
Versions: 1 2 3 4 5 6 7 8 9 10 11 12 13 14 15 16 17 18 19 20 21 22 23 24 25 26 27 28 29 30 31 32 33 34 35 36 37 38 39 40 41 42 43 44 45 46 47 48 49 50
000
ASUS43 KLSX 010107
RWRMO

WEATHER SUMMARY FOR MISSOURI
NATIONAL WEATHER SERVICE SPRINGFIELD MO
800 PM CDT SUN APR 30 2017

NOTE: "FAIR" INDICATES FEW OR NO CLOUDS BELOW 12,000 FEET WITH NO
       SIGNIFICANT WEATHER AND/OR OBSTRUCTIONS TO VISIBILITY.
       CURRENT SKY AND/OR WEATHER CONDITIONS ARE NOT AVAILABLE FOR
       CHILLICOTHE AND FARMINGTON.

MOZ001>031-035>038-043-044-053-054-010200-
...NORTHERN AND WESTERN MISSOURI...

CITY           SKY/WX    TMP DP  RH WIND       PRES   REMARKS
KANSAS CTY INT LGT RAIN  47  41  80 S17G29    29.49R
KANSAS C DTWN  LGT RAIN N/A N/A N/A SW14G28   29.50R
LEE`S SUMMIT     N/A     50  38  63 SW17G29   29.50S
ST JOSEPH      CLOUDY    50  42  74 S10       29.48S
CHILLICOTHE      N/A     53  40  61 VRB6      29.51R
KIRKSVILLE     MOCLDY    53  31  42 CALM      29.48R

$$
MOZ066>068-077>081-088>096-101>105-010200-
...SOUTHWEST MISSOURI...

CITY           SKY/WX    TMP DP  RH WIND       PRES   REMARKS
SPRINGFIELD    LGT RAIN  50  41  71 SW20      29.57R
JOPLIN         CLOUDY    50  40  68 S20G32    29.54S
BRANSON        LGT RAIN  54  39  58 SW20G33   29.62R FOG

$$
MOZ032>034-039>042-045>050-055>058-069>072-010200-
...CENTRAL MISSOURI...

CITY           SKY/WX    TMP DP  RH WIND       PRES   REMARKS
COLUMBIA       CLOUDY    58  47  66 SW20G28   29.52R
JEFFERSON CITY CLOUDY    63  44  50 W20G29    29.52R
ROLLA          PTCLDY    62  45  53 SW16G26   29.51R
SEDALIA        CLOUDY    54  39  57 SW26G35   29.54R
WHITEMAN AFB   CLOUDY    52  37  57 S14G23    29.51R
OSAGE BEACH    CLOUDY    58  41  53 SW16G24   29.54R

$$
MOZ051-052-059>065-010200-
...EAST CENTRAL MISSOURI...

CITY           SKY/WX    TMP DP  RH WIND       PRES   REMARKS
ST LOUIS INTL  CLOUDY    71  59  65 S10       29.50S
SPIRIT OF STL  PTCLDY    68  61  78 S9          N/A
ST CHARLES     PTCLDY    69  61  75 S16       29.48S

$$
MOZ072>076-082>087-097>100-106>115-010200-
...SOUTH CENTRAL AND SOUTHEAST MISSOURI...

CITY           SKY/WX    TMP DP  RH WIND       PRES   REMARKS
CAPE GIRARDEAU LGT RAIN  64  59  83 SW17      29.60R
FARMINGTON     CLEAR     64  50  60 S17G28    29.56S
POPLAR BLUFF   PTCLDY    64  49  57 S24G32    29.62R
WEST PLAINS    PTCLDY    58  42  55 SW16G29   29.61R

$$




USA.gov is the U.S. government's official web portal to all federal, state and local government web resources and services.